Mmabatho, South Africa

12:53 AM SAST on May 26, 2017 (GMT +0200)
Mmabatho

Weather History for FAMM - December, 2012

Change the Weather History Date:

Thursday, December 20, 2012

  Actual Average Record
Temperature  
Mean Temperature 72 °F -  
Max Temperature 85 °F - - ()
Min Temperature 60 °F - - ()
Cooling Degree Days 8    
Growing Degree Days 22 (Base 50)    
Moisture  
Dew Point 53 °F    
Average Humidity 56    
Maximum Humidity 78    
Minimum Humidity 19    
Precipitation  
Precipitation 0.03 in - - ()
Sea Level Pressure  
Sea Level Pressure 30.02 in    
Wind  
Wind Speed 6 mph ()    
Max Wind Speed 22 mph    
Max Gust Speed -    
Visibility 9.9 miles    
Events Thunderstorm    
T = Trace of Precipitation, MM = Missing Value Source: Averaged Metar Reports

Daily Weather History Graph

Daily Weather History Graph

Search for Another Location

Airport or City:

Trip Planner

Search our weather history database for the weather conditions in past years. The results will help you decide how hot, cold, wet, or windy it might be!

Date:

Astronomy

Dec. 20, 2012 Rise Set
Actual Time 5:23 AM SAST 7:08 PM SAST
Civil Twilight 4:57 AM SAST 7:34 PM SAST
Nautical Twilight 4:25 AM SAST 8:05 PM SAST
Astronomical Twilight 3:52 AM SAST 8:38 PM SAST
Moon 12:28 PM SAST (12/20) No Moon Set
Length of Visible Light 14h 37m
Length of Day
13h 45m
First Quarter, 52% of the Moon is Illuminated
Dec 20
First Quarter
Dec 28
Full
Jan 5
Last Quarter
Jan 11
New
Jan 19
First Quarter

Hourly Weather History & Observations

Time (SAST) Temp. Dew Point Humidity Pressure Visibility Wind Dir Wind Speed Gust Speed Precip Events Conditions
12:00 AM 64.4 °F 51.8 °F 64% 30.04 in - WSW 2.3 mph - N/A   Unknown
1:00 AM 60.8 °F 51.8 °F 72% 30.04 in - South 4.6 mph - N/A   Unknown
2:00 AM 64 °F 52 °F 55%  in - SE 5.8 mph - -  
2:00 AM 62.6 °F 50.0 °F 63% 30.04 in - SE 4.6 mph - N/A   Unknown
3:00 AM 60.8 °F 51.8 °F 72% 30.06 in - South 13.8 mph - N/A   Unknown
4:00 AM 60.8 °F 51.8 °F 72% 30.06 in - SSE 11.5 mph - N/A   Unknown
5:00 AM 62 °F 52 °F 61%  in 19 mi East 9.2 mph - -   Scattered Clouds
5:00 AM 60.8 °F 51.8 °F 72% 30.04 in - East 9.2 mph - N/A   Unknown
6:00 AM 60.8 °F 51.8 °F 72% 30.04 in 6.2 mi SE 9.2 mph - N/A   Partly Cloudy
7:00 AM 62.6 °F 51.8 °F 68% 30.04 in 6.2 mi ESE 8.1 mph - N/A   Scattered Clouds
7:50 AM 69.8 °F 51.8 °F 53% 30.04 in 6.2 mi East 9.2 mph - N/A   Scattered Clouds
8:00 AM 70 °F 53 °F 44%  in 19 mi East 10.4 mph - -   Scattered Clouds
8:00 AM 69.8 °F 51.8 °F 53% 30.04 in 6.2 mi East 9.2 mph - N/A   Scattered Clouds
9:00 AM 75.2 °F 51.8 °F 44% 30.04 in 6.2 mi East 9.2 mph - N/A   Scattered Clouds
9:49 AM 78.8 °F 50.0 °F 36% 30.04 in 6.2 mi ENE 5.8 mph - N/A   Scattered Clouds
10:00 AM 78.8 °F 48.2 °F 34% 30.04 in 6.2 mi ENE 5.8 mph - N/A   Scattered Clouds
11:00 AM 81 °F 47 °F 20%  in 19 mi NE 6.9 mph - -   Scattered Clouds
11:00 AM 80.6 °F 46.4 °F 30% 30.04 in 6.2 mi NE 5.8 mph - N/A   Scattered Clouds
12:00 PM 82.4 °F 46.4 °F 28% 30.01 in 6.2 mi North 4.6 mph - N/A   Partly Cloudy
1:00 PM 82.4 °F 48.2 °F 30% 30.01 in 6.2 mi NW 6.9 mph - N/A   Partly Cloudy
2:00 PM 83 °F 48 °F 19%  in 19 mi WNW 6.9 mph - -   Partly Cloudy
2:00 PM 82.4 °F 46.4 °F 28% 29.98 in 6.2 mi WNW 6.9 mph - N/A   Partly Cloudy
3:00 PM 75.2 °F 50.0 °F 41% 30.01 in 6.2 mi SSW 21.9 mph - N/A Thunderstorm Thunderstorm
3:47 PM 64.4 °F 57.2 °F 77% 30.01 in 6.2 mi NE 8.1 mph - N/A   Scattered Clouds
4:00 PM 64.4 °F 57.2 °F 77% 30.01 in 6.2 mi NE 9.2 mph - N/A   Scattered Clouds
5:00 PM 65 °F 56 °F 66%  in 19 mi North 5.8 mph - -   Scattered Clouds
5:00 PM 64.4 °F 55.4 °F 73% 29.98 in 6.2 mi North 4.6 mph - N/A   Mostly Cloudy
6:00 PM 68.0 °F 53.6 °F 60% 29.95 in - NW 2.3 mph - N/A   Clear
7:00 PM 73.4 °F 53.6 °F 50% 29.98 in - SSE 2.3 mph - N/A   Clear
8:00 PM 69 °F 59 °F 61%  in 19 mi NNE 4.6 mph - -   Partly Cloudy
8:00 PM 68.0 °F 57.2 °F 68% 29.98 in - NNE 3.5 mph - N/A   Clear
9:00 PM 66.2 °F 59.0 °F 78% 30.01 in - ENE 4.6 mph - N/A   Unknown
10:00 PM 66.2 °F 59.0 °F 78% 30.04 in - ENE 3.5 mph - N/A   Unknown
11:00 PM 67 °F 59 °F 68%  in - NE 5.8 mph - -  
11:00 PM 66.2 °F 57.2 °F 73% 30.01 in - NE 5.8 mph - N/A   Unknown